{"data":{"norad_id":58001,"epoch":"2026-05-24T22:49:04.559808Z","epoch_age_seconds":79592,"freshness":"FRESH","line1":"1 58001U 23153L   26144.95074722 -.00002508  00000+0 -81681-4 0  9995","line2":"2 58001  43.0031 356.0168 0001354 270.9179  89.1518 15.27560993146565","mean_motion":15.27560993,"eccentricity":0.0001354,"inclination_deg":43.0031,"raan_deg":356.0168,"arg_perigee_deg":270.9179,"mean_anomaly_deg":89.1518,"bstar":-8.1681e-5,"rev_number":14656,"period_min":94.267921647565,"perigee_km":482.17699812191,"apogee_km":484.03502272913,"semimajor_km":6861.2430104255,"source":"CELESTRAK","updated_at":"2026-05-25T13:38:18.491489Z"}}